Content
SEND FEEDBACK

Daily
Averages
Monthly
Summary
United States of America

SOUTH LAKE TAHOE - AIRPORT, CALIFORNIA


Home > North America > United States > California
Elevation: 6250 feet     Latitude: 38 54N     Longitude: 120 00W

WEATHER
 
SELECT A DAY
Number of Records: 174,493;   Date Range: 1/1/95 - 8/12/14
 
SHARE

PRINT THIS DATA

[ ← Previous Day ]
WEATHER ALMANAC - OCTOBER 29, 2013
[ Next Day → ]
[ °C ]   °F
Weather ElementAverageHighLow
Temperature35 °F37.9 °F (2:53 pm)30 °F (10:53 pm)
Dewpoint27.1 °F28.9 °F (5:53 pm)24.8 °F (11:35 pm)
Humidity73.3 %86 % (11:00 pm)62 % (10:53 am)
Barometer29.92 in30.04 in (11:00 pm)29.79 in (1:53 am)
Wind Speed5.6 mph15 mph (6:34 am)
Wind Gust19.6 mph (1:53 am)
Weather ElementAverage
Visibility9.5 mi
Wind DirectionESE (115.9 °)

Weather ElementTotal
Precipitation---
Heating Degree Days31.1 (Base 65)
Averaged from 34 records on October 29, 2013
WEATHER CONDITIONS BREAKOUT
WIND DIRECTION BREAKOUT
WEATHER BY HOUR - OCTOBER 29, 2013
[ °C ]   °F
Local TimeTemperatureDewpointHumidityBarometerVisibilityWind DirectionWind SpeedGust SpeedPrecipitationEventsConditions
1:53 AM35.1 °F27.0 °F72 %29.79 in10.0 miSSW (200°)12.7 mph19.6 mphOvercast
2:53 AM35.1 °F27.0 °F72 %29.79 in10.0 miSouth (180°)9.2 mphOvercast
3:53 AM35.1 °F27.0 °F72 %29.79 in10.0 miSouth (190°)12.7 mphOvercast
4:53 AM35.1 °F27.0 °F72 %29.81 in10.0 miSouth (190°)8.1 mphOvercast
5:53 AM35.1 °F27.0 °F72 %29.82 in10.0 miSouth (190°)9.2 mphOvercast
6:34 AM35.6 °F26.6 °F70 %29.85 in10.0 miSouth (190°)15.0 mphOvercast
6:53 AM35.1 °F27.0 °F72 %29.83 in10.0 miSouth (190°)12.7 mphOvercast
7:07 AM35.6 °F26.6 °F70 %29.86 in10.0 miSouth (190°)6.9 mphOvercast
7:53 AM35.1 °F26.1 °F70 %29.86 in10.0 miSouth (170°)6.9 mphOvercast
8:13 AM35.6 °F26.6 °F70 %29.88 in10.0 miSouth (180°)10.4 mphOvercast
8:53 AM36.0 °F25.0 °F64 %29.87 in10.0 miSouth (190°)12.7 mphOvercast
9:53 AM36.0 °F25.0 °F64 %29.88 in10.0 miSSW (200°)11.5 mphOvercast
10:53 AM37.0 °F25.0 °F62 %29.89 in10.0 miSouth (190°)8.1 mphOvercast
11:53 AM37.0 °F26.1 °F65 %29.90 in9.0 miSouth (190°)9.2 mphOvercast
12:53 PM37.0 °F26.1 °F65 %29.91 in10.0 miSouth (180°)8.1 mphOvercast
1:23 PM37.4 °F26.6 °F65 %29.93 in10.0 miSouth (190°)9.2 mphOvercast
1:53 PM37.0 °F27.0 °F67 %29.91 in8.0 miSouth (190°)6.9 mphOvercast
2:53 PM37.9 °F27.0 °F65 %29.89 in10.0 miSouth (190°)6.9 mphOvercast
3:53 PM37.9 °F28.0 °F68 %29.92 in10.0 miSouth (190°)5.8 mphOvercast
4:39 PM37.4 °F28.4 °F70 %29.95 in10.0 miSouth (190°)4.6 mphOvercast
4:53 PM37.0 °F28.0 °F70 %29.93 in10.0 miCalmOvercast
5:53 PM37.0 °F28.9 °F73 %29.94 in10.0 miSouth (170°)3.5 mphOvercast
6:53 PM36.0 °F28.9 °F76 %29.96 in10.0 miCalmMostly Cloudy
7:30 PM33.8 °F28.4 °F81 %29.99 in10.0 miCalmMostly Cloudy
7:37 PM33.8 °F28.4 °F81 %29.99 in10.0 miCalmMostly Cloudy
7:49 PM33.8 °F28.4 °F81 %29.99 in9.0 miCalmOvercast
7:53 PM34.0 °F28.9 °F82 %29.97 in9.0 miCalmMostly Cloudy
8:00 PM33.8 °F28.4 °F81 %29.99 in10.0 miCalmMostly Cloudy
8:53 PM33.1 °F28.0 °F82 %29.99 in8.0 miCalmMostly Cloudy
9:53 PM33.1 °F28.0 °F82 %30.01 in9.0 miCalmOvercast
10:53 PM30.0 °F26.1 °F85 %30.03 in7.0 miCalmScattered Clouds
11:00 PM30.2 °F26.6 °F86 %30.04 in8.0 miCalmMostly Cloudy
11:35 PM30.2 °F24.8 °F80 %30.04 in8.0 miCalmScattered Clouds
11:53 PM30.0 °F26.1 °F85 %30.03 in8.0 miCalmPartly Cloudy
Hourly data recorded from KTVL, located miles away from South Lake Tahoe - Airport, California







STORIES FROM OUR PARTNERS